Flag for South Africa Weather past 2 weeks in Bloemfontein, South Africa

Now
82 °F

Thunderstorms. Partly sunny.


Feels Like: 81 °F
Forecast: 61 / 74 °F
Wind: 15 mph from West

Location: Bloemfontein Airport

Current Time: Jan 27, 2015 at 2:40:33 PM

Latest Report: Jan 27, 2015 at 2:00 PM


Visibility: N/A

Pressure: 30.07 "Hg

Humidity: 30%

Dew point: 48 °F

Location of BloemfonteinLocation

Historic Weather in Bloemfontein — Graph

°F

Bloemfontein temperature yesterday

Maximum temperature yesterday: 82 °F (at 2:00 PM)
Minimum temperature yesterday: 64 °F (at 5:00 AM)
Average temperature yesterday: 73 °F

Past Weeks' High & Low Weather Summary

 TemperatureHumidityPressure
High95 °F (Jan 24, 2:00 PM)88% (Jan 15, 12:00 AM)30.30 "Hg (Jan 15, 12:00 AM)
Low50 °F (Jan 18, 5:00 AM)11% (Jan 23, 2:00 PM)29.83 "Hg (Jan 16, 5:00 PM)
Average74 °F47%30.08 "Hg
* Reported Jan 12 1:00 PM — Jan 27 1:00 PM, Bloemfontein, Weather by CustomWeather, © 2014

Note: Actual official high and low records may vary slightly from our data, if they occured in-between our weather recording intervals... More about our weather records

Advertising

Bloemfontein weather history for previous 24 hours

 ConditionsComfort  
Time TempWeatherWind HumidityBarometerVisibility
1:00 PM
Jan 27
88 °FPartly sunny.15 mph31%30.07 "HgN/A
12:00 PM86 °FScattered clouds.13 mph33%30.09 "HgN/A
11:00 AM84 °FSunny.6 mph29%30.09 "Hg10 mi
10:00 AM82 °FPassing clouds.8 mph37%30.12 "HgN/A
9:00 AM79 °FPassing clouds.5 mph45%30.12 "HgN/A
8:00 AM77 °FPassing clouds.3 mph47%30.12 "HgN/A
7:00 AM70 °FMild.No wind57%30.12 "HgN/A
6:00 AM63 °FMild.2 mph73%30.09 "HgN/A
5:00 AM64 °FMild.No wind64%30.09 "HgN/A
4:00 AM64 °FMild.3 mph64%30.07 "HgN/A
3:00 AM66 °FMild.3 mph64%30.09 "HgN/A
2:00 AM66 °FMild.No wind60%30.09 "HgN/A
1:00 AM72 °FMild.2 mph50%30.09 "HgN/A
12:00 AM75 °FMild.5 mph44%30.09 "HgN/A
11:00 PM
Jan 26
73 °FMild.No wind41%30.12 "HgN/A
10:00 PM73 °FMild.5 mph47%30.12 "HgN/A
9:00 PM75 °FMild.3 mph44%30.09 "HgN/A
8:00 PM75 °FClear.5 mph44%30.09 "Hg10 mi
7:00 PM79 °FClear.9 mph39%30.07 "Hg10 mi
6:00 PM81 °FSunny.10 mph34%30.07 "Hg10 mi
5:00 PM81 °FSunny.7 mph30%30.07 "Hg10 mi
4:00 PM82 °FPassing clouds.7 mph35%30.07 "HgN/A
3:00 PM75 °FPassing clouds.17 mph57%30.09 "HgN/A
2:00 PM82 °FSunny.5 mph32%30.09 "Hg10 mi
Weather by CustomWeather, © 2014

See weather overviewHow to use our weather pages